{"data":{"norad_id":68131,"intl_designator":"2026-047C","name":"HULIANWANG DIGUI-157","alt_names":[],"object_type":"PAYLOAD","status":"ACTIVE","operator":null,"country":"PRC","launch_date":"2026-03-12","launch_site_code":"WSC","launch_vehicle":null,"mission":null,"orbit_class":"UNKNOWN","rcs_meters":null,"size_class":null,"mass_kg":null,"dimensions":null,"purposes":[],"wikipedia_slug":null,"has_3d_model":false,"image_url":null,"decayed_at":null,"tle_current":{"epoch":"2026-05-24T23:34:20.307072Z","epoch_age_seconds":87306,"freshness":"FRESH","line1":"1 68131U 26047C   26144.98217948 -.00000088  00000+0  76848-4 0  9996","line2":"2 68131  49.9979 139.4492 0000193 352.4237   7.6632 13.29329727  9984","mean_motion":13.29329727,"eccentricity":1.93e-5,"inclination_deg":49.9979,"raan_deg":139.4492,"arg_perigee_deg":352.4237,"mean_anomaly_deg":7.6632,"bstar":7.6848e-5,"rev_number":998,"period_min":108.32526879917,"perigee_km":1149.1472228198,"apogee_km":1149.4377815985,"semimajor_km":7527.4295022091,"source":"CELESTRAK","updated_at":"2026-05-25T13:38:07.575935Z"}}}